MAROC-TUBSAT

Last updated on Thu Oct 30 2025 00:02:30 GMT+0000 (Coordinated Universal Time)

1 27004U 01056D 25302.48863080 -.00000013 00000+0 38111-4 0 9996 2 27004 99.7912 110.1609 0020025 16.0879 50.0979 13.70249850194597
UTC large
Height (km)
Speed (km/s)
/
Latitude / Longitude
Inclination (degrees)
Orbital Period (minutes)
Azimuth
Elevation
Range (km)
Doppler Factor

Next 0 passes for location: London (51.5072 / 0.1276)

Sorry there are no passes over London.